Starlink 30559

operational
NORAD ID: 58039 Int'l Des: 2023-156 Owner: SPXS Country: US Constellation: starlink
LEOCIRCULAR

Starlink 30559について

説明を読み込み中...

リアルタイム位置

3D地球を読み込み中...

次回通過

高度履歴

Altitude vs Time

uPlot chart will show altitude changes over time

軌道要素

1 58039U 23156M 26035.16668981 .00570284 00000-0 60426-2 0 9999
2 58039 53.1486 327.3774 0010690 144.2568 78.6055 15.61698661 5930
Epoch: Feb 4, 2026 • Age: 7 hours

現在のステータス

高度 385.9 km
速度 7.68 km/s
衛星直下点 20.48°N, 44.94°E
打ち上げ日 Oct 9, 2023
運用期間 2.3 years
タイプ internet

技術仕様

分類 Payload
質量 730.00 kg
乾燥質量 700.00 kg
総質量 730.00 kg
長さ 0.30 m
直径 4.10 m
スパン 29.00 m
形状 Box + pan
製造者 SPXS
バスタイプ Starlink V2M
フェーズステータス In Orbit
所有者/国 SPXS/US

大規模コンステレーション

Loading constellations...